GW3550 Weather Reports


Display with metric or nautical units.
time (UTC)temp
F
wind
direction
speed
MPH
gust
MPH
rain 1hr
in
rain 24hr
in
rain mn
in
humidity
%
barometer
mb
20260505050621 59 220 0.0 1.0 0.00 0.00 0.00 63 1016.6
20260505050120 58 221 1.0 1.0 0.00 0.00 0.00 64 1016.7
20260505041549 60 221 0.0 0.0 0.00 0.00 0.00 62 1017.0
20260505041047 61 224 0.0 0.0 0.00 0.00 0.00 61 1016.9
20260505040544 61 225 0.0 0.0 0.00 0.00 0.00 60 1017.0
20260505040041 61 185 0.0 1.0 0.00 0.00 0.00 60 1016.9
20260505035537 61 204 0.0 0.0 0.00 0.00 0.00 61 1016.8
20260505035034 61 231 0.0 0.0 0.00 0.00 0.00 61 1016.9
20260505034530 61 225 0.0 1.0 0.00 0.00 0.00 61 1016.9
20260505034027 61 210 0.0 0.0 0.00 0.00 0.00 61 1016.9
20260505033525 61 215 0.0 0.0 0.00 0.00 0.00 61 1016.8
20260505033023 61 214 0.0 1.0 0.00 0.00 0.00 61 1016.9
20260505032520 62 226 0.0 0.0 0.00 0.00 0.00 60 1017.1
20260505032016 62 224 0.0 1.0 0.00 0.00 0.00 60 1017.3
20260505031514 62 208 0.0 2.0 0.00 0.00 0.00 59 1017.3
20260505031010 63 219 0.0 1.0 0.00 0.00 0.00 59 1016.9
20260505030507 62 192 0.0 3.0 0.00 0.00 0.00 60 1016.9
20260505030002 62 221 0.0 1.0 0.00 0.00 0.00 60 1017.0
20260505025459 62 221 0.0 0.0 0.00 0.00 0.00 60 1016.8
20260505024958 63 220 0.0 0.0 0.00 0.00 0.00 59 1016.9
20260505024454 63 221 0.0 0.0 0.00 0.00 0.00 58 1016.9
20260505023951 63 220 0.0 0.0 0.00 0.00 0.00 58 1016.8
20260505023448 63 200 0.0 0.0 0.00 0.00 0.00 58 1016.9
20260505022946 63 207 0.0 1.0 0.00 0.00 0.00 57 1016.7
20260505022443 64 229 0.0 1.0 0.00 0.00 0.00 56 1017.0
20260505021941 63 231 0.0 1.0 0.00 0.00 0.00 57 1017.0
20260505021437 63 194 0.0 1.0 0.00 0.00 0.00 57 1016.7
20260505020932 63 223 0.0 0.0 0.00 0.00 0.00 57 1016.7
20260505020428 63 223 0.0 0.0 0.00 0.00 0.00 56 1017.0
20260505015925 63 230 0.0 0.0 0.00 0.00 0.00 56 1016.8
20260505015422 64 212 0.0 0.0 0.00 0.00 0.00 55 1016.6
20260505014920 64 222 0.0 0.0 0.00 0.00 0.00 55 1016.5
20260505014416 64 226 1.0 1.0 0.00 0.00 0.00 54 1016.5
20260505013913 64 223 0.0 0.0 0.00 0.00 0.00 54 1016.6
20260505013410 65 225 0.0 0.0 0.00 0.00 0.00 53 1016.5
20260505012909 65 224 0.0 0.0 0.00 0.00 0.00 53 1016.4
20260505012406 66 225 0.0 0.0 0.00 0.00 0.00 52 1016.3
20260505011902 66 218 0.0 1.0 0.00 0.00 0.00 51 1016.4
20260505011359 67 220 0.0 0.0 0.00 0.00 0.00 50 1016.3
20260505010855 67 210 0.0 1.0 0.00 0.00 0.00 49 1016.2
20260505010351 67 183 1.0 1.0 0.00 0.00 0.00 49 1016.0
20260505005847 68 222 0.0 2.0 0.00 0.00 0.00 48 1016.1
20260505005344 68 192 0.0 2.0 0.00 0.00 0.00 48 1016.0
20260505004842 67 221 0.0 1.0 0.00 0.00 0.00 49 1016.2
20260505004338 67 214 0.0 0.0 0.00 0.00 0.00 49 1016.2
20260505003835 67 223 0.0 0.0 0.00 0.00 0.00 49 1016.0
20260505003332 68 220 0.0 0.0 0.00 0.00 0.00 48 1016.0
20260505002828 68 222 0.0 0.0 0.00 0.00 0.00 48 1015.9
20260505002325 68 221 0.0 0.0 0.00 0.00 0.00 47 1015.8
20260505001824 69 223 0.0 1.0 0.00 0.00 0.00 47 1015.8
20260505001320 69 209 0.0 1.0 0.00 0.00 0.00 46 1015.9
20260505000818 70 193 0.0 1.0 0.00 0.00 0.00 45 1016.1
20260505000315 71 240 0.0 1.0 0.00 0.00 0.00 44 1015.8
20260504235812 72 239 0.0 2.0 0.00 0.00 0.00 44 1015.8
20260504235309 72 235 0.0 1.0 0.00 0.00 0.00 44 1015.8
20260504234805 73 221 2.0 2.0 0.00 0.00 0.00 43 1015.8
20260504234303 73 232 0.0 4.0 0.00 0.00 0.00 42 1016.0
20260504233759 74 221 0.0 1.0 0.00 0.00 0.00 41 1016.0
20260504233255 74 218 0.0 4.0 0.00 0.00 0.00 42 1015.9
20260504232752 74 194 0.0 2.0 0.00 0.00 0.00 41 1015.6
20260504232249 75 213 0.0 1.0 0.00 0.00 0.00 41 1015.8
20260504231746 75 241 2.0 3.0 0.00 0.00 0.00 40 1015.9
20260504231243 75 225 1.0 7.0 0.00 0.00 0.00 40 1015.8
20260504230738 76 220 0.0 3.0 0.00 0.00 0.00 39 1015.8
20260504230237 76 216 1.0 2.0 0.00 0.00 0.00 39 1015.7
20260504225736 76 218 2.0 3.0 0.00 0.00 0.00 38 1015.9
20260504225231 76 191 6.0 8.0 0.00 0.00 0.00 37 1015.5
20260504224729 76 164 5.0 8.0 0.00 0.00 0.00 38 1015.8
20260504224226 77 232 1.0 2.0 0.00 0.00 0.00 38 1015.8
20260504223722 78 223 0.0 3.0 0.00 0.00 0.00 39 1015.7
20260504223218 78 212 1.0 3.0 0.00 0.00 0.00 38 1015.6
20260504222715 78 243 3.0 7.0 0.00 0.00 0.00 36 1015.7
20260504222212 78 209 1.0 2.0 0.00 0.00 0.00 37 1015.9
20260504221709 78 224 0.0 1.0 0.00 0.00 0.00 39 1015.5
20260504221206 78 240 0.0 4.0 0.00 0.00 0.00 37 1015.5
20260504220703 80 230 2.0 3.0 0.00 0.00 0.00 33 1015.5
20260504220200 82 232 1.0 2.0 0.00 0.00 0.00 35 1015.6
20260504215656 81 251 1.0 2.0 0.00 0.00 0.00 33 1015.7
20260504215154 79 110 0.0 2.0 0.00 0.00 0.00 35 1015.7
20260504214649 78 205 1.0 2.0 0.00 0.00 0.00 34 1015.5
20260504214146 78 118 4.0 7.0 0.00 0.00 0.00 36 1015.6
20260504213643 79 232 1.0 4.0 0.00 0.00 0.00 36 1015.6
20260504213139 79 201 0.0 2.0 0.00 0.00 0.00 37 1015.6
20260504212636 78 189 0.0 7.0 0.00 0.00 0.00 37 1015.6
20260504212133 77 221 0.0 2.0 0.00 0.00 0.00 41 1015.6
20260504211630 78 161 2.0 2.0 0.00 0.00 0.00 37 1015.6
20260504211126 78 224 0.0 0.0 0.00 0.00 0.00 36 1015.6
20260504210625 78 243 0.0 4.0 0.00 0.00 0.00 35 1015.8
20260504210120 78 181 4.0 6.0 0.00 0.00 0.00 35 1015.8
20260504205618 77 204 1.0 1.0 0.00 0.00 0.00 38 1015.8
20260504205116 77 223 0.0 3.0 0.00 0.00 0.00 39 1015.6
20260504204614 79 210 1.0 6.0 0.00 0.00 0.00 37 1015.9
20260504204112 82 235 0.0 1.0 0.00 0.00 0.00 32 1016.1
20260504203610 81 213 0.0 2.0 0.00 0.00 0.00 32 1015.9
20260504203102 80 230 1.0 3.0 0.00 0.00 0.00 35 1015.9
20260504202557 81 182 4.0 7.0 0.00 0.00 0.00 34 1016.0
20260504202054 81 175 3.0 4.0 0.00 0.00 0.00 33 1015.9
20260504201551 81 187 0.0 2.0 0.00 0.00 0.00 32 1016.1
20260504201049 80 290 1.0 7.0 0.00 0.00 0.00 32 1016.3
20260504200545 81 291 1.0 6.0 0.00 0.00 0.00 34 1016.1
20260504200042 80 197 3.0 4.0 0.00 0.00 0.00 35 1016.3
20260504195538 78 206 1.0 2.0 0.00 0.00 0.00 36 1016.3
20260504195035 79 231 0.0 2.0 0.00 0.00 0.00 36 1016.2
20260504194531 80 223 0.0 2.0 0.00 0.00 0.00 35 1016.6
20260504194027 81 207 1.0 2.0 0.00 0.00 0.00 36 1016.4
20260504193524 80 232 0.0 3.0 0.00 0.00 0.00 33 1016.4
20260504193023 79 252 2.0 3.0 0.00 0.00 0.00 32 1016.5
20260504192520 79 248 0.0 2.0 0.00 0.00 0.00 40 1016.6
20260504192018 79 245 1.0 2.0 0.00 0.00 0.00 34 1016.7
20260504191516 78 246 2.0 3.0 0.00 0.00 0.00 33 1016.9
20260504191012 77 116 0.0 1.0 0.00 0.00 0.00 39 1016.9
20260504190508 77 212 3.0 7.0 0.00 0.00 0.00 38 1017.1
20260504190004 77 119 0.0 1.0 0.00 0.00 0.00 40 1017.0
20260504185501 77 197 1.0 2.0 0.00 0.00 0.00 44 1017.0
20260504184958 78 203 1.0 2.0 0.00 0.00 0.00 37 1016.9
20260504184453 78 212 0.0 1.0 0.00 0.00 0.00 35 1017.5
20260504183949 78 217 0.0 6.0 0.00 0.00 0.00 34 1017.0
20260504183446 79 230 1.0 3.0 0.00 0.00 0.00 32 1017.3
20260504182944 79 250 3.0 4.0 0.00 0.00 0.00 32 1017.1
20260504182441 79 238 2.0 4.0 0.00 0.00 0.00 34 1017.5
20260504181938 79 70 1.0 2.0 0.00 0.00 0.00 37 1017.4
20260504181435 78 240 0.0 1.0 0.00 0.00 0.00 41 1017.6
20260504180934 78 240 0.0 2.0 0.00 0.00 0.00 36 1017.6
20260504180432 78 240 1.0 2.0 0.00 0.00 0.00 38 1017.6
20260504175930 77 340 1.0 4.0 0.00 0.00 0.00 37 1017.7
20260504175427 78 247 1.0 1.0 0.00 0.00 0.00 36 1017.9
20260504174925 76 266 0.0 3.0 0.00 0.00 0.00 37 1017.9
20260504174422 76 233 3.0 4.0 0.00 0.00 0.00 38 1017.7
20260504173919 79 243 4.0 7.0 0.00 0.00 0.00 38 1018.0
20260504173415 78 210 0.0 2.0 0.00 0.00 0.00 39 1018.3
20260504172913 77 206 1.0 1.0 0.00 0.00 0.00 42 1018.2
20260504172409 76 32 2.0 3.0 0.00 0.00 0.00 40 1018.2
20260504171905 75 229 2.0 3.0 0.00 0.00 0.00 41 1018.3
20260504171403 75 216 1.0 4.0 0.00 0.00 0.00 40 1018.4
20260504170900 76 177 2.0 3.0 0.00 0.00 0.00 39 1018.5
20260504170356 74 90 1.0 3.0 0.00 0.00 0.00 43 1018.3
20260504160315 73 246 2.0 4.0 0.00 0.00 0.00 43 1019.2
20260504150739 69 239 2.0 6.0 0.00 0.00 0.00 43 1019.7
20260504150236 69 241 0.0 6.0 0.00 0.00 0.00 44 1019.6
20260504141206 66 240 2.0 3.0 0.00 0.00 0.00 48 1019.8
20260504140703 66 243 4.0 4.0 0.00 0.00 0.00 48 1019.7
20260504140158 66 245 1.0 3.0 0.00 0.00 0.00 51 1019.7
20260504130626 61 231 1.0 2.0 0.00 0.00 0.00 59 1019.8
20260504130123 61 231 0.0 1.0 0.00 0.00 0.00 61 1019.5
20260504110508 46 234 0.0 1.0 0.00 0.00 0.00 85 1019.4
20260504100419 45 235 0.0 1.0 0.00 0.00 0.00 88 1019.0
20260504081806 47 240 0.0 0.0 0.00 0.00 0.00 84 1019.0
20260504081303 48 240 0.0 0.0 0.00 0.00 0.00 82 1018.9
20260504080759 47 240 0.0 0.0 0.00 0.00 0.00 82 1018.9
20260504080255 47 240 0.0 0.0 0.00 0.00 0.00 82 1019.1
20260504070223 51 240 0.0 1.0 0.00 0.00 0.00 71 1019.5
20260504060144 52 239 1.0 2.0 0.00 0.00 0.00 67 1019.4